Weather in Alanap

Russia / Khabarovsk Krai     50°00′48″N   131°59′27″E
temp.,
°C
wind,
m/s
gust,
m/s
humid.,
%
clouds,
%
prec.,
mm/h
press.,
hPa
HPBL,
m
23 may, mon
mon2301:00+7ese1190100 0.0 100834
04:00+8ese1294100 0.0 100875
07:00+8ese2590100 0.3 1008264
10:00+10se3576100 0.9 1008504
13:00+11nne1180100 0.8 100683
16:00+13se367097 1.3 1004655
19:00+11ese31090100 3.8 1002393
22:00+10ne129999 18.3 100499
24 may, tue
tue2401:00+9ene119996 0.1 100418
04:00+9ne0199100 0.3 100422
07:00+9sw1199100 0.2 100468
10:00+9w369097 0.3 1005633
13:00+11w566984 0.1 10051152
16:00+9w468097 0.2 1007801
19:00+9wnw3785100 0.1 1007548
22:00+7nw1395100 0.4 1009106
25 may, wed
wed2501:00+7nnw1196100 0.1 101137
04:00+7nnw119697 0.3 101231
07:00+7nw129253 0.0 1013139
10:00+12nnw24615 0.0 10131021
13:00+18nnw25370 0.0 10101833
16:00+20nnw263352 0.0 10082528
19:00+17nw245015 0.0 1008139
22:00+11w11710 0.0 101010
26 may, thu
thu2601:00+8wsw11825 0.0 101110
04:00+7sw118614 0.0 101010
07:00+10ssw11730 0.0 101077
10:00+19w13452 0.0 1008740
13:00+22w33365 0.0 10062045
16:00+22wnw233365 0.0 10042187
19:00+22sw11402 0.0 100335
22:00+15sw235897 0.0 100460
27 may, fri
fri2701:00+11ssw117657 0.0 100412
04:00+9sse01831 0.0 100410
07:00+12e117340 0.0 100480
10:00+19se234560 0.0 10031081
13:00+24s352648 0.0 10002582
16:00+23ssw553591 0.0 9992263
19:00+19ssw3857100 0.0 1000537
22:00+13se1180100 0.0 100110